Hourly Data Report for June 29, 2020

BORDEN AWOS
ONTARIO
Current Station Operator: DND

44°16'20.000" N
79°54'42.000" W
222.50 m
611B002
71534
YBN

Download Data

Hourly Data (June 2020)
Hourly Data Report for June 29, 2020
TIME
LST
Temp Definition
°C
Dew Point Definition
°C
Rel Hum Definition
%
Precip. Amount Definition
mm

Wind Dir Definition
10's deg

Wind Spd Definition
km/h
Visibility Definition
km
Stn Press Definition
kPa
Hmdx Definition


Wind Chill Definition


Weather Definition


00:00 15.0 14.0 94     0 14.5 98.60     LegendNANA
01:00 13.9 13.2 96     0 14.5 98.60     LegendNANA
02:00 12.3 11.8 97     0 1.4 98.62     LegendNANA
03:00 12.6 11.7 94   23 4 11.3 98.63     LegendNANA
04:00
05:00 11.3 11.1 99     0 2.1 98.72     LegendNANA
06:00 15.3 14.7 96     0 14.5 98.79     LegendNANA
07:00 20.4 15.2 72   34 6 14.5 98.83     LegendNANA
08:00 22.3 15.9 67   35 9 14.5 98.87 27   LegendNANA
09:00 24.4 16.3 61   34 7 14.5 98.86 29   LegendNANA
10:00 25.8 16.1 55   35 7 14.5 98.87 30   LegendNANA
11:00 27.3 15.5 49   34 9 14.5 98.86 32   LegendNANA
12:00 28.7 15.5 45   35 7 14.5 98.86 33   LegendNANA
13:00 29.3 13.4 38   35 9 14.5 98.85 32   LegendNANA
14:00 30.1 13.4 36   1 17 14.5 98.83 33   LegendNANA
15:00 29.1 13.6 39   35 15 14.5 98.84 32   LegendNANA
16:00 29.2 13.9 39   32 20 14.5 98.85 33   LegendNANA
17:00 28.4 14.3 42   31 15 14.5 98.81 32   LegendNANA
18:00 27.2 14.0 44   34 15 14.5 98.82 31   LegendNANA
19:00 25.0 14.1 51   32 11 14.5 98.83 28   LegendNANA
20:00 22.9 14.4 59   33 6 14.5 98.89 27   LegendNANA
21:00 20.9 13.8 64     0 14.5 98.93     LegendNANA
22:00 18.9 13.6 71     0 14.5 98.94     LegendNANA
23:00 17.3 13.6 79   2 4 14.5 98.93     LegendNANA

Notes on Data Quality.

Legend

  • E = Estimated
  • M = Missing
  • NA = Not Available*
  • [empty] = Indicates an unobserved value
Date modified: